Location: Владивосток
(43.1151°N, 131.8856°E)
Time: 17:56:03
(UTC+10:00)

DUCHIFAT 1 - Pass Details

Date: 01 July 2022
Orbit: 580 x 596 km, 98.0° (Epoch: 17 August)

Event Time Altitude Azimuth Distance (km) Brightness Sun altitude
Rises 02:46:41 0° 29° (NNE) 2,843 ? -20.6°
Reaches altitude 10° 02:49:27 10° 49° (NE) 1,938 ? -20.4°
Maximum altitude 02:52:22 18° 93° (E) 1,479 ? -20.1°
Enters shadow 02:54:47 12° 132° (SE) 1,804 ? -20.0°
